Location: Caltech
(34.1382°N, 118.1253°W)
Time: 08:09:35
(UTC-07:00)

CZ-4B DEB - Visible Passes

Search period start: 03 August 2015 00:00
Search period end: 13 August 2015 00:00
Orbit: 842 x 863 km, 98.9° (Epoch: 02 August)

Date Brightness Start Highest point End Pass type
(mag) Time Alt. Az. Time Alt. Az. Time Alt. Az.
03 Aug 5.4 03:48:19 10° NNE 03:53:20 37° E 03:57:04 17° SSE visible
03 Aug 5.4 05:29:31 10° NNW 05:33:54 24° WNW 05:38:08 10° WSW visible
04 Aug 5.8 03:37:23 10° NE 03:42:01 29° E 03:45:39 15° SSE visible
04 Aug 5.1 05:17:59 10° N 05:22:45 31° WNW 05:27:25 10° SW visible
05 Aug 6.2 03:26:33 10° NE 03:30:41 23° E 03:34:13 13° SE visible
05 Aug 4.8 05:06:31 10° N 05:11:35 39° WNW 05:16:15 12° SW visible
06 Aug 6.5 03:15:54 10° NE 03:19:20 17° E 03:22:47 11° SE visible
06 Aug 4.5 04:55:08 10° N 05:00:24 49° WNW 05:04:49 14° SW visible
07 Aug 6.7 03:05:35 10° ENE 03:07:56 13° E 03:10:38 10° ESE visible
07 Aug 4.2 04:43:48 10° N 04:49:13 64° WNW 04:53:23 17° SSW visible
08 Aug 4.1 04:32:31 10° N 04:38:01 82° WNW 04:41:57 19° SSW visible
09 Aug 4.2 04:21:17 10° NNE 04:26:47 79° ESE 04:30:31 21° S visible
10 Aug 4.6 04:10:08 10° NNE 04:15:32 61° E 04:19:05 22° S visible
11 Aug 5.0 03:59:02 10° NNE 04:04:17 47° E 04:07:39 21° SSE visible
11 Aug 5.7 05:40:49 10° NNW 05:44:42 19° WNW 05:48:22 10° WSW visible
12 Aug 5.4 03:48:00 10° NNE 03:52:59 37° E 03:56:13 20° SSE visible
12 Aug 5.4 05:29:10 10° NNW 05:33:34 24° WNW 05:37:48 10° WSW visible
